TimeEST,TemperatureF,Dew PointF,Humidity,Sea Level PressureIn,VisibilityMPH,Wind Direction,Wind SpeedMPH,Gust SpeedMPH,PrecipitationIn,Events,Conditions,WindDirDegrees,DateUTC
1:53 AM,24.1,19.9,84,30.28,7.0,Calm,Calm,-,N/A,,Clear,0,2012-12-14 06:53:00
2:53 AM,23.0,19.0,85,30.27,7.0,Calm,Calm,-,N/A,,Clear,0,2012-12-14 07:53:00
3:53 AM,21.0,18.0,88,30.25,7.0,ESE,3.5,-,N/A,,Clear,120,2012-12-14 08:53:00
4:53 AM,24.1,19.9,84,30.24,10.0,SE,5.8,-,N/A,,Clear,140,2012-12-14 09:53:00
5:53 AM,25.0,19.9,81,30.24,10.0,SSE,4.6,-,N/A,,Clear,160,2012-12-14 10:53:00
6:53 AM,30.9,23.0,72,30.24,10.0,SSE,3.5,-,N/A,,Clear,160,2012-12-14 11:53:00
7:53 AM,30.9,23.0,72,30.23,10.0,SSE,4.6,-,N/A,,Clear,160,2012-12-14 12:53:00
8:53 AM,34.0,24.1,67,30.23,10.0,SSE,5.8,-,N/A,,Clear,160,2012-12-14 13:53:00
9:53 AM,37.0,23.0,57,30.22,10.0,SW,8.1,-,N/A,,Clear,220,2012-12-14 14:53:00
10:53 AM,39.9,23.0,51,30.19,10.0,SW,4.6,-,N/A,,Clear,230,2012-12-14 15:53:00
11:53 AM,43.0,23.0,45,30.15,10.0,SSW,4.6,-,N/A,,Clear,200,2012-12-14 16:53:00
12:53 PM,45.0,23.0,42,30.13,10.0,SSW,6.9,-,N/A,,Clear,200,2012-12-14 17:53:00
1:53 PM,46.9,23.0,39,30.11,10.0,Variable,3.5,-,N/A,,Clear,0,2012-12-14 18:53:00
2:53 PM,50.0,21.0,32,30.12,10.0,West,8.1,-,N/A,,Clear,270,2012-12-14 19:53:00
3:53 PM,46.0,23.0,40,30.13,10.0,WSW,6.9,-,N/A,,Clear,250,2012-12-14 20:53:00
4:53 PM,42.1,24.1,49,30.14,10.0,WSW,3.5,-,N/A,,Clear,240,2012-12-14 21:53:00
5:53 PM,37.9,24.1,57,30.17,10.0,Calm,Calm,-,N/A,,Clear,0,2012-12-14 22:53:00
6:53 PM,33.1,25.0,72,30.18,10.0,Calm,Calm,-,N/A,,Clear,0,2012-12-14 23:53:00
7:53 PM,30.9,23.0,72,30.20,10.0,Calm,Calm,-,N/A,,Clear,0,2012-12-15 00:53:00
8:53 PM,30.0,23.0,75,30.21,10.0,Calm,Calm,-,N/A,,Clear,0,2012-12-15 01:53:00
9:53 PM,28.0,21.9,78,30.21,10.0,Calm,Calm,-,N/A,,Clear,0,2012-12-15 02:53:00
10:53 PM,28.0,23.0,81,30.20,10.0,Calm,Calm,-,N/A,,Clear,0,2012-12-15 03:53:00
11:53 PM,26.1,21.0,81,30.22,10.0,Calm,Calm,-,N/A,,Clear,0,2012-12-15 04:53:00